Flight Track Log - Related Links

Times and Time Zones

All times are in EDT time to prevent confusion due to time zone crossing. See the AAL2345 flight status page for this flight to view local times or setup timezone preferences in your user account.

Time Position Orientation Groundspeed Altitude Reporting Facility
EDT Latitude Longitude Course Direction KTS MPH feet Rate Location/Type
Sat 07:27:18 PM 41.9500 -87.9833 252° West 167 192 3,300  Level Chicago TRACON
Sat 07:28:19 PM 41.9000 -88.0333 217° Southwest 237 273 5,200 2,479 Climbing Chicago TRACON
Sat 07:29:00 PM 41.8913 -88.2771 255° West  Level FlightAware Approximate
Sat 07:29:19 PM 41.8500 -88.0833 217° Southwest 267 307 8,300  Level Chicago TRACON
Sat 07:30:00 PM 41.8511 -88.3972 242° Southwest  Level FlightAware Approximate
Sat 07:30:27 PM 41.7883 -88.1458 217° Southwest 261 300 11,200  Level Chicago Center
Sat 07:31:00 PM 41.8243 -88.5243 254° West  Level FlightAware Approximate
Sat 07:31:29 PM 41.7550 -88.2369 244° Southwest 274 315 13,100  Level Chicago Center
Sat 07:32:00 PM 41.7406 -88.6179 252° West  Level Estimated
Sat 07:32:30 PM 41.7289 -88.3594 254° West 291 335 15,700  Level Chicago Center
Sat 07:33:31 PM 41.7256 -88.4692 268° West 300 345 18,200 1,756 Climbing Chicago Center
Sat 07:34:33 PM 41.7297 -88.5906 273° West 327 376 19,300 1,415 Climbing Chicago Center
Sat 07:35:34 PM 41.7089 -88.7178 258° West 347 399 21,100 2,016 Climbing Chicago Center
Sat 07:36:35 PM 41.6867 -88.8442 257° West 351 404 23,400 1,902 Climbing Chicago Center
Sat 07:37:37 PM 41.6617 -88.9703 255° West 354 407 25,000 1,220 Climbing Chicago Center
Sat 07:38:38 PM 41.6303 -89.1303 255° West 375 432 25,900 738 Climbing Chicago Center
Sat 07:39:39 PM 41.6022 -89.2761 256° West 404 465 26,500 829 Climbing Chicago Center
Sat 07:40:41 PM 41.5708 -89.4292 255° West 425 489 27,600 732 Climbing Chicago Center
Sat 07:41:42 PM 41.5433 -89.5658 255° West 430 495 28,000 197 Climbing Chicago Center
Sat 07:42:43 PM 41.5064 -89.7450 255° West 421 484 28,000  Level Chicago Center
Sat 07:43:44 PM 41.4775 -89.8958 256° West 422 486 28,000  Level Chicago Center
Sat 07:44:46 PM 41.4464 -90.0444 254° West 420 483 28,000  Level Chicago Center
Sat 07:45:47 PM 41.4158 -90.1942 255° West 420 483 28,000  Level Chicago Center
Sat 07:46:48 PM 41.3786 -90.3447 252° West 429 494 28,000  Level Chicago Center
Sat 07:47:49 PM 41.2997 -90.4572 227° Southwest 423 487 28,000  Level Chicago Center
Sat 07:48:51 PM 41.2111 -90.5600 221° Southwest 426 490 28,000  Level Chicago Center
Sat 07:49:52 PM 41.1250 -90.6594 221° Southwest 417 480 28,000  Level Chicago Center
Sat 07:50:53 PM 41.0206 -90.7769 220° Southwest 413 475 28,000  Level Chicago Center
Sat 07:51:55 PM 40.9322 -90.8769 221° Southwest 417 480 28,000  Level Chicago Center
Sat 07:52:56 PM 40.8461 -90.9750 221° Southwest 414 476 28,000  Level Chicago Center
Sat 07:53:57 PM 40.7586 -91.0736 220° Southwest 415 478 28,000  Level Chicago Center
Sat 07:54:58 PM 40.6714 -91.1725 221° Southwest 414 476 28,000  Level Chicago Center
Sat 07:55:44 PM 40.5994 -91.2517 220° Southwest 416 479 28,000  Level Kansas City Center
Sat 07:56:45 PM 40.5114 -91.3483 220° Southwest 417 480 28,000  Level Kansas City Center
Sat 07:57:47 PM 40.4242 -91.4453 220° Southwest 415 478 28,000  Level Kansas City Center
Sat 07:58:02 PM 40.4081 -91.4650 223° Southwest 414 476 28,000  Level Chicago Center
Sat 07:58:48 PM 40.3367 -91.5428 220° Southwest 414 476 28,000  Level Kansas City Center
Sat 07:59:50 PM 40.2475 -91.6417 220° Southwest 418 481 28,000  Level Kansas City Center
Sat 08:00:51 PM 40.1578 -91.7400 220° Southwest 420 483 28,000  Level Kansas City Center
Sat 08:01:53 PM 40.0508 -91.8589 220° Southwest 421 484 28,000  Level Kansas City Center
Sat 08:02:54 PM 39.9614 -91.9569 220° Southwest 421 484 28,000  Level Kansas City Center
Sat 08:03:55 PM 39.8711 -92.0547 220° Southwest 420 483 28,000  Level Kansas City Center
Sat 08:04:56 PM 39.7811 -92.1531 220° Southwest 422 486 28,000  Level Kansas City Center
Sat 08:05:57 PM 39.6917 -92.2500 220° Southwest 420 483 28,000  Level Kansas City Center
Sat 08:06:59 PM 39.6008 -92.3469 219° Southwest 424 488 28,000  Level Kansas City Center
Sat 08:08:00 PM 39.5094 -92.4464 220° Southwest 428 493 28,000  Level Kansas City Center
Sat 08:09:01 PM 39.4164 -92.5456 219° Southwest 432 497 28,000  Level Kansas City Center
Sat 08:10:02 PM 39.3242 -92.6450 220° Southwest 433 498 28,000  Level Kansas City Center
Sat 08:11:04 PM 39.2119 -92.7633 219° Southwest 435 501 28,000  Level Kansas City Center
Sat 08:12:05 PM 39.1172 -92.8642 220° Southwest 441 507 28,000  Level Kansas City Center
Sat 08:13:06 PM 39.0222 -92.9650 220° Southwest 443 510 28,000  Level Kansas City Center
Sat 08:14:07 PM 38.9264 -93.0656 219° Southwest 445 512 28,000  Level Kansas City Center
Sat 08:15:09 PM 38.8289 -93.1672 219° Southwest 447 514 28,000  Level Kansas City Center
Sat 08:16:10 PM 38.7303 -93.2703 219° Southwest 452 520 28,000  Level Kansas City Center
Sat 08:17:11 PM 38.6319 -93.3725 219° Southwest 454 522 28,000  Level Kansas City Center
Sat 08:18:12 PM 38.5331 -93.4756 219° Southwest 458 527 28,000  Level Kansas City Center
Sat 08:19:13 PM 38.4167 -93.5944 219° Southwest 452 520 28,000  Level Kansas City Center
Sat 08:20:15 PM 38.3222 -93.6911 219° Southwest 442 509 28,000  Level Kansas City Center
Sat 08:21:16 PM 38.2267 -93.7894 219° Southwest 441 507 28,000  Level Kansas City Center
Sat 08:22:18 PM 38.1300 -93.8886 219° Southwest 444 511 28,000  Level Kansas City Center
Sat 08:23:18 PM 38.0328 -93.9858 218° Southwest 446 513 28,000  Level Kansas City Center
Sat 08:24:19 PM 37.9342 -94.0861 219° Southwest 450 518 28,000  Level Kansas City Center
Sat 08:25:21 PM 37.8356 -94.1847 218° Southwest 453 521 28,000  Level Kansas City Center
Sat 08:26:22 PM 37.7358 -94.2842 218° Southwest 455 524 28,000  Level Kansas City Center
Sat 08:27:23 PM 37.6239 -94.3936 218° Southwest 460 529 28,000  Level Kansas City Center
Sat 08:28:24 PM 37.5247 -94.4950 219° Southwest 459 528 28,000  Level Kansas City Center
Sat 08:29:26 PM 37.4242 -94.5936 218° Southwest 458 527 28,000  Level Kansas City Center
Sat 08:30:27 PM 37.3228 -94.6903 217° Southwest 457 526 28,000  Level Kansas City Center
Sat 08:31:28 PM 37.2214 -94.7911 218° Southwest 462 532 28,000  Level Kansas City Center
Sat 08:32:29 PM 37.0997 -94.8517 202° Southwest 471 542 28,000  Level Kansas City Center
Sat 08:33:30 PM 36.9731 -94.9008 197° South 475 547 28,000  Level Kansas City Center
Sat 08:34:31 PM 36.8467 -94.9519 198° South 474 545 28,000  Level Kansas City Center
Sat 08:35:32 PM 36.7208 -95.0014 197° South 474 545 28,000  Level Kansas City Center
Sat 08:36:33 PM 36.5961 -95.0511 198° South 470 541 28,000  Level Kansas City Center
Sat 08:37:35 PM 36.4622 -95.1039 198° South 468 539 28,000  Level Kansas City Center
Sat 08:38:36 PM 36.3369 -95.1547 198° South 471 542 28,000  Level Kansas City Center
Sat 08:39:37 PM 36.2117 -95.2033 197° South 472 543 28,000  Level Kansas City Center
Sat 08:40:38 PM 36.0881 -95.2528 198° South 468 539 28,000  Level Kansas City Center
Sat 08:41:39 PM 35.9394 -95.3114 198° South 469 540 28,000  Level Kansas City Center
Sat 08:42:40 PM 35.8131 -95.3614 198° South 472 543 28,000  Level Kansas City Center
Sat 08:43:41 PM 35.6861 -95.4111 198° South 474 545 28,000  Level Kansas City Center
Sat 08:44:50 PM 35.5517 -95.4669 199° South 479 551 28,000 -279 Level Fort Worth Center
Sat 08:45:50 PM 35.4294 -95.5131 197° South 479 551 27,400 -800 Descending Fort Worth Center
Sat 08:46:50 PM 35.3072 -95.5617 198° South 468 539 26,400 -1,000 Descending Fort Worth Center
Sat 08:47:50 PM 35.1889 -95.6047 197° South 461 531 25,400 -950 Descending Fort Worth Center
Sat 08:48:50 PM 35.0706 -95.6431 195° South 450 518 24,500 -700 Descending Fort Worth Center
Sat 08:49:50 PM 34.9564 -95.6833 196° South 437 503 24,000 -250 Descending Fort Worth Center
Sat 08:50:50 PM 34.8419 -95.7161 193° South 423 487 24,000  Level Fort Worth Center
Sat 08:51:50 PM 34.7300 -95.7536 195° South 423 487 24,000  Level Fort Worth Center
Sat 08:52:50 PM 34.6178 -95.7886 194° South 423 487 24,000  Level Fort Worth Center
Sat 08:53:50 PM 34.5033 -95.8233 194° South 423 487 24,000  Level Fort Worth Center
Sat 08:54:50 PM 34.3850 -95.8558 193° South 428 493 24,000  Level Fort Worth Center
Sat 08:55:51 PM 34.2725 -95.8881 193° South 433 498 24,000 -400 Level Fort Worth Center
Sat 08:56:50 PM 34.1625 -95.9300 198° South 425 489 23,200 -1,261 Descending Fort Worth Center
Sat 08:57:50 PM 34.0631 -95.9944 208° Southwest 389 448 21,500 -1,600 Descending Fort Worth Center
Sat 08:58:50 PM 33.9697 -96.0536 208° Southwest 389 448 20,000 -1,450 Descending Fort Worth Center
Sat 08:59:50 PM 33.8764 -96.1075 206° Southwest 384 442 18,600 -1,250 Descending Fort Worth Center
Sat 09:00:50 PM 33.7936 -96.1589 207° Southwest 379 436 17,500 -1,250 Descending Fort Worth Center
Sat 09:01:50 PM 33.6961 -96.2225 208° Southwest 372 428 16,100 -1,250 Descending Fort Worth Center
Sat 09:02:50 PM 33.6150 -96.2711 207° Southwest 367 422 15,000 -1,050 Descending Fort Worth Center
Sat 09:03:50 PM 33.5175 -96.3297 207° Southwest 367 422 14,000 -1,000 Descending Fort Worth Center
Sat 09:04:50 PM 33.4450 -96.3778 209° Southwest 345 397 13,000 -1,050 Descending Fort Worth Center
Sat 09:05:50 PM 33.3661 -96.4433 215° Southwest 330 380 11,900 -1,000 Descending Fort Worth Center
Sat 09:06:50 PM 33.3103 -96.5086 224° Southwest 324 373 11,000 -450 Descending Fort Worth Center
Sat 09:07:50 PM 33.2461 -96.5839 224° Southwest 324 373 11,000  Level Fort Worth Center
Sat 09:08:50 PM 33.1778 -96.6664 225° Southwest 324 373 11,000  Level Fort Worth Center
Sat 09:09:51 PM 33.1028 -96.7264 214° Southwest 329 379 11,000  Level Fort Worth Center
Sat 09:10:22 PM 33.0500 -96.7333 186° South 317 365 11,000 -635 Level Dallas / Fort Worth TRACON
Sat 09:11:16 PM 32.9833 -96.7500 192° South 302 348 10,100 -1,263 Descending Dallas / Fort Worth TRACON
Sat 09:12:16 PM 32.9000 -96.7667 190° South 274 315 8,600 -1,536 Descending Dallas / Fort Worth TRACON
Sat 09:13:21 PM 32.8667 -96.8500 245° Southwest 230 265 6,900 -1,569 Descending Dallas / Fort Worth TRACON

Login

Don't have an account? Register now (free) for customized features, flight alerts, and more!